Temp
-10 -10 -10 -10 -10 -11 -11 -11 -11 -12 -12 -12 -12 -12 -13 -13 -13 -13 -13 -13 -13 -13 -13 -13 -13 -13 -13 -13 -13 -13 -13 -13 -13 -13 -13 -12 -12 -12 -12 -12 -12 -13 -12
-10 -10 -10 -11 -11 -11 -12 -12 -13 -12 -12 -12 -12 -12 -13 -13 -13 -13 -13 -13 -13 -13 -13 -13 -13 -13 -13 -13 -13 -13 -13 -13 -13 -13 -13 -13 -12 -13 -13 -13 -12 -12 -11
-10 -11 -11 -11 -12 -12 -13 -13 -13 -12 -12 -12 -13 -13 -13 -13 -13 -14 -13 -13 -13 -13 -13 -13 -13 -13 -13 -13 -13 -13 -13 -13 -13 -13 -13 -13 -12 -12 -12 -12 -12 -12 -12
-11 -12 -12 -12 -13 -13 -13 -12 -12 -12 -12 -13 -13 -13 -13 -13 -13 -13 -13 -13 -13 -13 -13 -13 -13 -13 -13 -13 -13 -13 -13 -13 -13 -13 -13 -13 -12 -13 -13 -12 -12 -12 -12
-12 -12 -13 -13 -13 -13 -13 -12 -12 -12 -13 -13 -13 -13 -13 -13 -13 -13 -13 -12 -13 -13 -13 -12 -12 -12 -12 -12 -12 -13 -13 -13 -13 -13 -13 -13 -13 -13 -13 -13 -13 -12 -12
-12 -13 -13 -13 -13 -13 -13 -13 -13 -13 -13 -13 -13 -13 -13 -13 -13 -13 -13 -12 -12 -12 -12 -12 -12 -12 -12 -12 -12 -12 -12 -13 -13 -13 -13 -13 -13 -13 -13 -13 -13 -12 -12
-12 -13 -13 -13 -13 -13 -13 -13 -13 -13 -13 -13 -13 -13 -13 -13 -13 -12 -12 -12 -12 -12 -12 -12 -12 -12 -12 -12 -12 -12 -12 -12 -13 -13 -13 -13 -13 -13 -13 -13 -13 -13 -13
-12 -12 -13 -13 -13 -13 -13 -13 -13 -13 -13 -13 -13 -12 -12 -12 -12 -12 -12 -12 -12 -12 -12 -12 -12 -12 -12 -12 -12 -12 -12 -12 -13 -13 -13 -13 -13 -13 -13 -13 -13 -13 -13
-12 -12 -12 -12 -12 -12 -12 -13 -13 -13 -13 -12 -12 -12 -12 -12 -12 -12 -12 -12 -12 -12 -12 -12 -12 -12 -12 -12 -12 -12 -13 -13 -13 -13 -13 -13 -13 -13 -13 -13 -13 -13 -13
-12 -12 -12 -12 -12 -12 -12 -12 -12 -12 -12 -12 -12 -12 -12 -12 -12 -12 -12 -12 -12 -12 -12 -13 -13 -13 -13 -12 -12 -12 -12 -12 -12 -12 -12 -12 -13 -13 -13 -13 -13 -13 -13
-12 -12 -12 -12 -12 -12 -12 -12 -12 -12 -12 -12 -12 -12 -12 -12 -12 -12 -12 -12 -13 -13 -13 -13 -13 -13 -13 -13 -13 -13 -13 -13 -12 -12 -12 -12 -12 -13 -13 -13 -13 -14 -14
-12 -12 -12 -12 -12 -12 -12 -12 -12 -12 -12 -12 -12 -12 -12 -13 -13 -13 -13 -13 -13 -13 -13 -13 -13 -13 -13 -13 -13 -13 -14 -13 -13 -13 -13 -13 -13 -14 -14 -13 -13 -14 -14
-12 -12 -12 -12 -12 -12 -12 -12 -12 -12 -12 -12 -13 -13 -13 -13 -13 -13 -13 -13 -13 -13 -13 -14 -14 -14 -14 -14 -14 -14 -14 -14 -14 -14 -14 -14 -14 -14 -14 -14 -14 -14 -14
-12 -12 -12 -12 -12 -12 -12 -13 -13 -13 -13 -13 -13 -13 -13 -13 -13 -13 -13 -14 -14 -14 -14 -14 -14 -14 -14 -15 -15 -15 -15 -15 -15 -15 -15 -15 -15 -15 -15 -15 -15 -15 -14
-12 -12 -12 -12 -13 -13 -13 -13 -13 -13 -13 -13 -14 -14 -14 -14 -14 -14 -14 -15 -15 -15 -15 -15 -15 -15 -15 -15 -15 -15 -15 -15 -15 -15 -15 -15 -15 -15 -15 -15 -15 -15 -15
-12 -12 -12 -13 -13 -13 -13 -13 -14 -14 -14 -14 -14 -14 -15 -15 -15 -15 -15 -15 -15 -15 -15 -15 -15 -15 -15 -16 -16 -16 -16 -16 -16 -16 -17 -16 -16 -16 -16 -16 -16 -16 -16
-12 -12 -13 -13 -14 -14 -14 -14 -14 -14 -14 -14 -15 -15 -15 -15 -15 -15 -15 -15 -16 -16 -16 -16 -16 -16 -16 -16 -17 -17 -17 -18 -18 -18 -18 -18 -17 -17 -17 -17 -17 -17 -17
-13 -13 -14 -14 -14 -14 -14 -14 -14 -14 -15 -15 -15 -15 -15 -15 -16 -16 -16 -16 -16 -16 -16 -16 -17 -17 -17 -18 -18 -19 -19 -19 -19 -19 -19 -19 -18 -18 -18 -18 -18 -18 -18
-14 -14 -14 -14 -14 -14 -15 -15 -15 -15 -15 -15 -15 -15 -16 -16 -16 -16 -16 -16 -17 -17 -17 -17 -17 -18 -18 -19 -20 -20 -21 -21 -21 -21 -21 -21 -21 -20 -20 -20 -19 -19 -19
-15 -15 -15 -15 -15 -15 -15 -15 -15 -15 -15 -16 -16 -16 -16 -16 -16 -16 -16 -17 -17 -17 -17 -18 -18 -19 -20 -21 -21 -22 -23 -23 -23 -23 -23 -22 -22 -22 -22 -21 -21 -21 -21
-15 -15 -15 -15 -15 -15 -15 -16 -16 -16 -16 -16 -17 -17 -17 -17 -17 -17 -17 -17 -18 -18 -18 -18 -19 -19 -21 -22 -22 -23 -24 -24 -24 -24 -24 -23 -23 -23 -22 -22 -22 -22 -22
-15 -15 -15 -15 -16 -16 -16 -16 -16 -16 -17 -17 -17 -17 -17 -17 -18 -18 -18 -18 -18 -19 -19 -19 -19 -20 -21 -22 -23 -24 -25 -25 -25 -25 -24 -24 -24 -24 -23 -23 -23 -22 -22
-16 -16 -16 -16 -17 -17 -17 -17 -17 -17 -17 -18 -18 -18 -18 -18 -18 -18 -18 -19 -19 -19 -19 -20 -20 -21 -22 -23 -23 -24 -25 -25 -25 -26 -25 -25 -24 -24 -24 -23 -23 -23 -23
-16 -17 -17 -17 -17 -18 -18 -18 -18 -18 -18 -18 -18 -18 -18 -18 -19 -19 -19 -19 -20 -20 -20 -20 -21 -22 -23 -23 -24 -24 -25 -26 -26 -26 -26 -25 -25 -24 -24 -23 -23 -23 -23
-17 -18 -18 -18 -18 -18 -18 -18 -18 -19 -19 -19 -19 -19 -19 -19 -19 -19 -19 -20 -20 -21 -21 -21 -22 -22 -23 -23 -24 -24 -26 -26 -26 -26 -25 -25 -25 -24 -24 -24 -24 -23 -23
-17 -18 -18 -18 -18 -18 -19 -19 -19 -19 -19 -19 -19 -19 -20 -19 -20 -20 -20 -21 -21 -21 -21 -22 -23 -23 -23 -23 -24 -25 -26 -25 -25 -25 -25 -25 -24 -24 -25 -25 -24 -24 -24
Height
5836 5833 5829 5826 5822 5819 5815 5812 5808 5804 5802 5800 5799 5797 5795 5794 5793 5791 5790 5788 5787 5785 5784 5784 5783 5782 5782 5781 5781 5781 5780 5779 5779 5778 5777 5777 5776 5775 5776 5777 5776 5777 5778
5830 5827 5822 5818 5815 5811 5807 5803 5801 5799 5798 5796 5794 5792 5791 5790 5789 5787 5785 5782 5781 5780 5780 5780 5779 5778 5778 5777 5777 5776 5776 5773 5772 5771 5770 5769 5769 5768 5768 5767 5767 5765 5767
5823 5819 5814 5810 5807 5803 5800 5798 5796 5795 5793 5791 5790 5788 5787 5786 5784 5782 5779 5778 5777 5776 5776 5776 5775 5774 5773 5772 5771 5769 5768 5766 5765 5764 5763 5761 5760 5760 5759 5758 5757 5756 5755
5815 5810 5806 5803 5799 5797 5795 5793 5792 5790 5788 5786 5785 5784 5783 5781 5780 5777 5776 5774 5773 5772 5772 5771 5770 5768 5767 5765 5764 5762 5760 5758 5757 5755 5753 5753 5752 5751 5750 5748 5748 5746 5745
5807 5802 5798 5796 5794 5793 5791 5789 5787 5785 5783 5782 5782 5780 5779 5777 5775 5773 5771 5770 5768 5767 5766 5765 5764 5762 5760 5758 5756 5754 5753 5751 5749 5747 5745 5744 5743 5741 5740 5739 5738 5737 5736
5800 5797 5794 5792 5790 5789 5787 5784 5782 5781 5779 5778 5777 5775 5773 5772 5769 5767 5765 5764 5762 5761 5760 5758 5757 5755 5752 5750 5749 5747 5746 5744 5742 5740 5738 5736 5734 5732 5731 5729 5728 5727 5726
5796 5793 5789 5787 5785 5784 5782 5779 5778 5777 5775 5773 5771 5769 5767 5765 5763 5761 5759 5757 5756 5754 5753 5752 5750 5747 5744 5742 5740 5738 5737 5735 5733 5731 5730 5728 5726 5723 5722 5720 5719 5717 5716
5793 5789 5784 5782 5780 5778 5776 5774 5772 5771 5769 5767 5765 5763 5761 5760 5757 5754 5752 5751 5749 5747 5745 5742 5740 5738 5735 5733 5731 5729 5727 5725 5723 5721 5720 5718 5717 5715 5712 5710 5709 5707 5706
5789 5785 5782 5778 5775 5772 5771 5769 5768 5765 5762 5760 5758 5757 5755 5753 5752 5749 5746 5743 5741 5738 5736 5733 5730 5728 5725 5723 5721 5719 5716 5714 5711 5709 5707 5706 5705 5703 5701 5700 5699 5697 5696
5784 5781 5778 5775 5772 5770 5767 5765 5763 5760 5757 5754 5751 5748 5746 5744 5741 5740 5737 5734 5731 5729 5726 5723 5719 5716 5714 5711 5709 5707 5704 5702 5699 5697 5695 5693 5691 5689 5688 5688 5688 5687 5686
5779 5777 5774 5771 5768 5765 5762 5759 5756 5753 5750 5747 5743 5740 5738 5735 5732 5730 5727 5724 5721 5718 5716 5713 5711 5708 5705 5703 5700 5697 5694 5691 5688 5685 5682 5680 5679 5676 5674 5674 5674 5675 5674
5773 5771 5768 5764 5762 5758 5754 5751 5748 5745 5742 5739 5735 5732 5729 5726 5723 5720 5717 5714 5711 5708 5705 5702 5699 5697 5694 5691 5687 5684 5680 5676 5673 5670 5668 5666 5664 5662 5660 5659 5659 5660 5660
5766 5764 5761 5758 5754 5751 5747 5744 5741 5737 5734 5730 5726 5723 5720 5717 5713 5710 5707 5704 5701 5698 5694 5690 5687 5684 5681 5678 5674 5670 5666 5662 5658 5655 5652 5650 5648 5646 5644 5644 5644 5644 5644
5759 5756 5753 5750 5747 5743 5740 5737 5733 5729 5726 5722 5718 5714 5710 5706 5702 5699 5695 5692 5689 5685 5681 5677 5674 5670 5666 5663 5659 5655 5652 5648 5644 5640 5637 5635 5633 5631 5629 5628 5628 5628 5629
5751 5748 5745 5741 5738 5735 5731 5728 5724 5720 5717 5712 5709 5705 5700 5696 5692 5687 5683 5680 5676 5673 5669 5664 5660 5655 5651 5646 5642 5639 5635 5630 5627 5623 5620 5618 5617 5615 5614 5611 5611 5612 5612
5742 5739 5735 5732 5729 5725 5721 5718 5714 5710 5706 5701 5697 5693 5689 5684 5680 5676 5672 5667 5663 5659 5655 5650 5644 5639 5634 5629 5625 5620 5615 5611 5607 5603 5600 5598 5597 5596 5595 5594 5594 5594 5594
5734 5730 5726 5723 5719 5715 5711 5707 5702 5698 5694 5689 5686 5682 5677 5673 5668 5663 5658 5653 5648 5644 5641 5634 5628 5621 5615 5609 5602 5598 5593 5589 5585 5583 5579 5578 5577 5576 5576 5575 5575 5575 5576
5724 5720 5716 5713 5709 5704 5700 5696 5691 5687 5683 5679 5674 5670 5664 5660 5654 5648 5644 5639 5633 5629 5626 5620 5610 5602 5594 5586 5579 5573 5568 5565 5563 5560 5559 5557 5556 5555 5555 5555 5555 5555 5557
5714 5710 5706 5702 5697 5693 5689 5683 5679 5675 5670 5665 5659 5654 5649 5644 5639 5634 5629 5624 5618 5612 5607 5602 5595 5583 5573 5564 5558 5552 5548 5544 5541 5539 5538 5537 5536 5534 5534 5535 5535 5535 5536
5704 5700 5695 5691 5686 5681 5675 5669 5664 5660 5655 5650 5645 5639 5634 5628 5624 5618 5613 5607 5601 5596 5589 5583 5576 5565 5553 5544 5539 5535 5531 5526 5523 5521 5520 5519 5518 5517 5516 5516 5517 5517 5518
5693 5688 5683 5678 5672 5667 5661 5656 5651 5645 5640 5635 5629 5623 5617 5612 5608 5603 5597 5590 5585 5578 5571 5564 5555 5545 5535 5526 5521 5518 5515 5511 5509 5506 5503 5502 5502 5500 5499 5500 5500 5500 5502
5681 5675 5670 5664 5658 5652 5646 5641 5636 5630 5624 5619 5614 5607 5601 5595 5590 5584 5579 5572 5565 5559 5552 5542 5535 5526 5517 5510 5504 5502 5498 5497 5496 5490 5489 5487 5486 5484 5483 5484 5484 5484 5484
5666 5660 5654 5649 5643 5637 5631 5625 5619 5615 5609 5602 5596 5591 5585 5579 5573 5567 5561 5555 5548 5540 5531 5522 5516 5507 5501 5493 5489 5485 5482 5481 5479 5476 5473 5473 5468 5469 5467 5468 5468 5468 5469
5650 5645 5639 5633 5627 5620 5613 5607 5601 5596 5592 5586 5579 5572 5567 5561 5554 5549 5544 5538 5531 5522 5512 5504 5500 5492 5484 5477 5472 5469 5467 5464 5462 5459 5454 5457 5454 5453 5452 5451 5452 5453 5453
5634 5628 5622 5615 5609 5603 5594 5587 5582 5578 5573 5568 5562 5555 5549 5543 5536 5530 5527 5520 5514 5505 5494 5486 5479 5476 5469 5463 5458 5454 5452 5450 5450 5446 5443 5441 5439 5439 5437 5435 5436 5438 5438
5617 5611 5605 5597 5590 5585 5576 5569 5563 5559 5555 5549 5543 5536 5528 5523 5517 5511 5506 5501 5495 5485 5476 5468 5462 5457 5452 5448 5443 5440 5438 5438 5435 5434 5429 5428 5426 5425 5424 5422 5422 5423 5424
Wind_Speed
32 35 37 39 41 42 43 44 44 30 24 22 25 24 23 22 21 21 24 25 25 24 24 24 23 21 18 17 18 21 24 25 26 27 27 28 31 31 36 36 38 42 50
36 39 41 43 42 42 44 34 23 23 24 26 26 25 23 20 21 25 27 26 25 24 19 17 15 14 16 18 21 23 25 27 28 28 29 30 31 31 34 36 34 35 48
41 44 44 42 42 40 26 24 23 25 28 28 25 23 21 22 25 26 19 12 13 14 16 16 17 19 21 23 26 28 28 30 30 30 32 33 35 35 36 37 39 34 31
46 45 43 41 32 24 24 25 25 28 29 23 22 21 22 24 24 21 18 19 20 19 19 20 22 23 26 28 30 32 33 32 34 35 36 35 35 35 37 37 38 41 38
45 40 33 25 22 23 24 26 28 26 22 20 21 22 24 25 25 22 20 21 21 21 22 24 25 28 31 34 35 36 32 31 30 31 34 35 36 37 38 37 40 39 39
31 29 23 22 23 25 27 28 23 23 21 22 25 27 27 27 27 27 24 23 25 26 26 28 32 34 37 39 39 37 34 32 32 34 35 35 36 38 38 39 39 40 40
28 31 29 28 27 27 28 25 23 24 25 27 29 29 29 29 30 29 27 27 28 29 32 34 38 39 37 37 36 36 37 37 40 42 40 39 39 39 39 40 40 39 38
23 26 26 25 26 26 26 24 26 29 29 28 28 29 30 30 30 30 30 31 33 36 38 39 38 39 38 38 39 40 41 43 45 46 45 43 42 42 41 40 39 39 38
24 24 22 21 21 22 24 27 29 31 31 30 30 30 31 31 33 34 36 37 38 39 41 41 41 41 42 43 44 44 45 46 47 48 47 47 46 45 45 44 41 39 39
26 26 26 27 27 27 28 29 30 31 33 34 36 37 38 39 40 39 40 40 40 41 42 43 43 43 43 41 39 41 42 43 45 47 47 46 46 46 47 47 44 42 40
27 29 28 29 29 30 32 34 35 36 36 37 38 39 39 37 35 35 36 38 39 39 39 39 40 40 41 41 44 47 47 48 50 50 50 51 50 49 48 48 47 45 42
29 30 31 32 33 35 37 35 33 31 31 33 35 36 36 36 35 38 39 40 41 42 43 45 47 47 48 50 53 55 55 56 56 56 54 54 54 53 51 49 48 47 46
31 32 35 36 36 36 34 32 32 34 36 36 37 37 38 40 41 41 41 41 42 44 46 49 51 53 55 57 58 58 58 58 57 55 55 55 54 51 50 51 50 50 48
32 35 37 38 37 37 37 37 37 38 38 39 40 40 41 42 43 44 46 47 47 49 52 54 54 56 58 58 59 61 62 61 59 58 57 56 55 54 52 50 51 50 51
34 37 39 39 38 38 38 37 38 39 41 43 44 45 47 47 47 46 46 48 51 51 52 55 58 60 63 65 66 67 66 66 66 66 64 63 61 62 60 57 55 53 53
37 39 40 39 39 40 40 41 43 45 47 48 48 47 45 46 48 50 53 55 58 59 59 58 61 62 65 68 71 73 74 73 71 68 66 65 64 63 61 60 57 56 56
41 42 41 40 41 43 45 46 49 50 48 46 47 48 50 53 56 60 61 61 60 61 59 62 66 70 75 78 79 80 79 77 73 69 64 63 64 62 61 60 58 57 56
43 41 41 42 44 47 50 52 53 51 49 50 53 54 56 57 58 59 58 59 60 62 64 66 72 77 79 83 84 80 74 69 65 63 61 60 60 60 59 57 55 55 56
42 44 45 47 49 52 53 52 51 50 53 55 58 59 58 59 60 60 61 61 64 66 70 73 76 80 82 82 78 70 65 61 58 57 56 58 59 59 59 57 56 56 56
46 48 50 53 55 55 53 53 52 54 56 59 58 57 60 61 62 61 63 65 68 71 74 75 78 79 79 73 69 63 58 56 53 52 52 51 53 55 55 55 56 54 54
51 53 56 57 58 56 55 56 57 59 60 60 58 60 62 62 61 62 65 68 71 73 73 76 77 77 72 67 63 57 51 50 47 48 47 49 48 48 50 49 50 50 51
56 58 59 59 58 57 59 61 62 62 62 61 61 62 61 61 62 64 66 67 70 72 73 77 76 75 68 62 58 53 48 47 45 48 49 47 47 48 47 44 45 47 47
59 59 59 59 59 60 63 64 62 63 63 62 61 61 62 63 65 67 67 69 70 71 73 77 75 69 64 59 57 53 52 51 49 51 49 46 48 48 47 46 46 43 44
61 61 60 61 62 64 64 66 66 63 61 60 62 63 64 67 68 70 71 72 69 70 72 73 70 65 61 59 57 54 52 47 44 44 48 47 49 48 46 43 42 42 43
63 64 65 66 66 67 68 66 64 62 61 62 65 67 68 68 69 71 73 70 68 69 71 71 68 61 58 57 54 50 41 38 37 42 44 43 43 40 42 43 42 41 41
66 67 67 69 70 68 66 66 66 65 64 67 67 67 70 72 73 74 73 70 68 70 71 69 62 58 55 54 51 44 41 39 42 43 45 42 42 41 39 39 40 39 39
Wind_Direction
309 307 305 304 302 301 300 302 303 298 298 301 304 303 300 298 298 298 297 293 290 289 292 292 292 289 290 296 298 297 295 290 284 286 286 285 283 283 276 278 289 273 267
308 306 306 306 301 300 302 306 300 298 302 302 299 299 294 295 301 303 303 293 287 282 284 290 291 296 294 296 299 299 297 295 296 293 290 289 287 285 283 281 292 290 279
309 310 308 303 302 305 303 303 302 301 303 303 300 297 293 296 305 304 298 299 298 289 287 283 285 287 290 294 300 299 297 293 291 291 291 290 289 286 284 284 278 292 285
313 310 306 305 308 303 303 307 306 306 302 297 295 296 296 300 305 304 288 287 287 290 287 286 286 289 292 297 301 303 296 292 291 290 288 286 285 286 285 286 283 288 291
312 311 313 308 303 308 307 306 304 304 303 293 295 300 299 300 304 301 292 288 286 286 286 286 287 291 293 296 298 302 296 296 298 297 294 289 286 284 283 286 285 285 290
319 322 315 309 304 301 300 305 303 307 301 291 293 298 302 302 302 303 294 290 285 287 287 286 289 291 292 292 295 296 294 295 297 299 300 298 293 287 283 280 285 286 286
323 316 305 301 304 306 307 304 302 309 306 301 299 300 301 299 300 300 297 293 292 290 291 293 294 293 293 294 294 295 292 292 296 297 297 296 294 293 286 283 282 285 289
323 328 320 302 296 298 304 301 297 300 300 297 297 297 297 298 298 298 297 294 293 292 293 294 294 294 293 294 294 293 292 291 292 293 294 293 291 288 285 283 282 282 282
312 317 326 331 321 310 305 301 301 301 302 302 301 301 300 298 297 296 294 294 295 294 294 293 292 291 290 290 289 289 288 289 289 291 292 292 290 286 283 280 279 279 279
305 312 318 322 320 318 313 311 308 307 306 305 303 302 301 301 301 301 300 299 298 296 295 293 292 292 293 292 296 298 296 295 296 294 293 291 289 285 282 279 277 277 276
302 308 311 316 316 316 314 309 305 301 300 299 299 299 299 301 303 304 303 302 302 302 300 299 298 297 297 296 296 296 295 294 292 290 289 288 287 283 281 279 276 274 275
299 307 308 309 311 313 310 307 305 305 305 304 301 298 298 298 299 301 301 302 302 301 300 299 299 297 296 297 296 296 296 294 291 287 285 285 284 282 280 276 273 272 271
301 305 305 308 310 309 308 306 302 300 300 300 300 300 299 300 301 301 300 300 299 299 298 297 298 296 296 296 296 295 293 292 289 288 287 285 283 280 278 277 274 271 268
304 305 306 306 305 305 304 303 302 302 301 300 300 300 300 300 298 298 297 296 296 297 297 296 296 297 296 296 296 294 292 290 287 285 286 285 283 282 279 276 275 272 269
303 305 302 302 302 304 304 303 302 300 300 299 300 299 299 298 298 299 298 296 297 299 299 297 297 296 295 293 293 293 291 289 288 286 285 283 281 280 278 276 274 272 268
301 300 300 301 302 301 299 299 299 300 301 301 299 299 299 298 299 300 301 300 300 300 299 298 297 296 296 295 294 292 290 288 287 285 285 283 281 278 275 273 272 270 268
301 300 300 299 297 297 299 301 302 301 299 299 300 301 299 299 299 300 302 302 299 297 297 297 298 298 298 298 296 293 290 289 290 288 285 286 282 279 275 272 270 268 266
300 298 296 297 298 300 302 303 303 302 301 300 300 299 299 298 299 298 299 297 296 295 297 298 300 300 300 298 296 297 295 292 288 285 281 277 276 275 272 270 268 267 265
296 296 297 299 300 301 303 302 300 299 298 298 298 297 298 298 298 298 298 298 298 298 299 299 301 302 301 299 298 295 291 290 287 284 281 278 276 272 269 267 264 263 261
297 298 299 301 304 304 302 298 296 295 295 296 298 298 297 297 297 298 298 298 298 299 301 304 304 302 300 299 297 294 292 290 288 287 284 280 279 276 275 270 267 264 262
299 300 301 302 302 300 297 295 295 295 295 296 296 295 295 296 296 296 298 299 300 301 304 306 305 302 300 297 296 293 291 288 288 288 287 284 281 279 277 275 273 269 266
300 301 301 300 297 295 295 295 294 294 294 295 295 295 295 295 297 298 299 300 302 304 306 306 305 302 299 297 294 293 291 285 287 285 284 283 283 280 275 272 269 267 265
300 299 298 297 295 293 293 294 294 294 295 295 295 294 295 298 299 299 300 302 306 307 306 306 303 300 297 294 294 292 290 287 284 285 280 281 280 282 277 274 272 269 266
297 296 295 293 293 295 296 296 295 295 295 295 295 296 299 300 300 300 303 305 306 305 305 305 301 298 296 294 293 291 291 291 288 286 286 279 281 282 281 276 270 267 265
296 295 295 296 297 297 297 296 295 295 296 296 297 299 299 298 301 303 303 304 305 304 302 302 300 297 295 293 291 291 289 287 288 286 287 289 285 282 279 275 271 266 264
295 296 297 297 298 297 295 294 294 294 294 295 297 298 300 301 302 303 303 304 305 302 302 298 296 295 294 293 292 287 284 288 287 286 288 290 285 281 277 273 270 267 263